TKJ5NM LTFH-LTAC

Flight info

Callsign TKJ5NM
Flight time N/A
Altitude 28000
Route HAVZA UW71 ILHAN
Aircraft B738/M-SDE2E3FGHIRWXY/LB1

Departure

Time 2026-04-24 17:05
Airport Samsun-Çarşamba Airport (LTFH)

Arrival

Time N/A
Airport Esenboğa International Airport (LTAC)
Time Latitude Longitude Altitude Speed Heading
2026-04-24 16:41 41.25994 36.55340 29 ft 0 kts 220°
2026-04-24 16:58 41.25995 36.55328 37 ft 2 kts 290°
2026-04-24 16:58 41.26026 36.55327 34 ft 7 kts 14°
2026-04-24 16:58 41.26078 36.55340 33 ft 8 kts 336°
2026-04-24 16:59 41.26122 36.55285 33 ft 9 kts 310°
2026-04-24 16:59 41.26169 36.55222 33 ft 10 kts 334°
2026-04-24 16:59 41.26259 36.55279 33 ft 0 kts 41°
2026-04-24 17:00 41.26266 36.55288 32 ft 4 kts 43°
2026-04-24 17:01 41.26322 36.55356 34 ft 8 kts 44°
2026-04-24 17:01 41.26361 36.55405 33 ft 3 kts 43°
2026-04-24 17:02 41.26341 36.55464 33 ft 0 kts 131°
2026-04-24 17:02 41.26340 36.55465 33 ft 0 kts 131°
2026-04-24 17:02 41.26339 36.55467 33 ft 1 kts 131°
2026-04-24 17:02 41.26336 36.55471 33 ft 0 kts 131°
2026-04-24 17:04 41.26336 36.55472 33 ft 1 kts 132°
2026-04-24 17:05 41.26232 36.55615 35 ft 61 kts 133°
2026-04-24 17:05 41.25736 36.56308 9 ft 143 kts 134°
2026-04-24 17:05 41.24148 36.58494 1602 ft 169 kts 133°
2026-04-24 17:06 41.23296 36.59698 2373 ft 194 kts 131°
2026-04-24 17:06 41.21278 36.62705 3360 ft 241 kts 130°
2026-04-24 17:06 41.20202 36.64470 4033 ft 253 kts 118°
2026-04-24 17:07 41.19743 36.65910 4588 ft 259 kts 103°
2026-04-24 17:07 41.19670 36.69111 5872 ft 267 kts 78°
2026-04-24 17:07 41.21870 36.73120 7664 ft 282 kts 41°
2026-04-24 17:08 41.25191 36.75901 9463 ft 292 kts
2026-04-24 17:08 41.27185 36.75713 10397 ft 288 kts 337°
2026-04-24 17:08 41.28957 36.74368 10772 ft 305 kts 314°
2026-04-24 17:09 41.32088 36.69936 11541 ft 345 kts 306°
2026-04-24 17:09 41.33507 36.64024 13483 ft 342 kts 269°
2026-04-24 17:10 41.33319 36.61896 14066 ft 346 kts 257°
2026-04-24 17:10 41.29970 36.51917 16542 ft 364 kts 246°
2026-04-24 17:11 41.26710 36.42621 18693 ft 376 kts 247°
2026-04-24 17:12 41.21111 36.26554 21793 ft 393 kts 247°